[Iaude] MPEC A97: 2019 AQ3 [a=0.59,e=0.31,i=47.2,H=17.6]

mpec at mpcdb1.cfa.harvard.edu mpec at mpcdb1.cfa.harvard.edu
Sun Jan 6 19:23:16 EST 2019


M.P.E.C. 2019-A97                                Issued 2019 Jan. 7, 00:17 UT
 
     The Minor Planet Electronic Circulars contain information on unusual
         minor planets and routine data on comets.  They are published
    on behalf of Division F of the International Astronomical Union by the
          Minor Planet Center, Smithsonian Astrophysical Observatory,
                          Cambridge, MA 02138, U.S.A.

             Prepared using the Tamkin Foundation Computer Network

                              MPC at CFA.HARVARD.EDU
            URL https://www.minorplanetcenter.net/    ISSN 1523-6714


                                   2019 AQ3
 
                           Revision to MPEC 2019-A88
 
Additional Observations:
     K19A03Q  C2015 10 13.61304 09 49 30.739-04 13 01.92         19.0 GVEA097F51
     K19A03Q  C2015 10 13.62819 09 49 34.448-04 12 23.40         19.0 GVEA097F51
     K19A03Q  C2015 10 13.64122 09 49 37.622-04 11 50.44         19.6 GVEA097F51
     K19A03Q  C2015 10 14.61533 09 53 44.109-03 30 10.27         19.1 GVEA097F51
     K19A03Q  C2015 10 14.63537 09 53 49.213-03 29 18.54         19.3 GVEA097F51
     K19A03Q  C2015 10 14.64458 09 53 51.549-03 28 54.79         19.1 GVEA097F51
     K19A03Q  C2015 10 15.62123 09 58 09.146-02 46 28.93         19.0 GVEA097F51
     K19A03Q  C2015 10 15.63687 09 58 13.303-02 45 47.90         19.5 GVEA097F51
     K19A03Q  C2015 10 15.64715 09 58 16.036-02 45 20.92         19.9 GVEA097F51
 
Observer details:
F51 Pan-STARRS 1, Haleakala.  Observers K. Chambers, B. Gibson, T. Goggia,
    E. Magnier, N. Primak, A. Schultz, M. Willman.  Measurers S. Chastel,
    M. Huber, Y. Ramanjooloo, R. Wainscoat, R. Weryk.  1.8-m Ritchey-Chretien
    + CCD.
 
Orbital elements:
2019 AQ3                                                 Earth MOID = 0.2259 AU
Epoch 2019 Apr. 27.0 TT = JDT 2458600.5                 MPC
M 118.50094              (2000.0)            P               Q
n   2.18225591     Peri.  163.15077     -0.58990382     +0.46185481
a   0.5886615      Node    64.48743     -0.79928918     -0.21749828
e   0.3143115      Incl.   47.21519     -0.11467471     -0.85987478
P   0.45           H   17.6           G   0.15           U   4
Residuals in seconds of arc
151013 F51  0.0   0.0     181230 I41 (0.1-  2.5+)   190105 I41  0.3+  0.5-
151013 F51  0.1+  0.0     181230 I41 (0.0   2.0+)   190106 K38  0.2+  0.1-
151013 F51  0.0   0.1-    181230 I41 (0.2-  1.8+)   190106 K38  0.5+  0.7+
151014 F51  0.0   0.0     190103 I41  0.2-  0.7-    190106 204  0.1-  0.4-
151014 F51  0.1-  0.0     190103 I41  0.3-  0.7-    190106 204  0.2-  0.3+
151014 F51  0.2-  0.0     190103 I41  0.1-  0.6-    190106 204  0.3-  0.2+
151015 F51  0.0   0.1+    190103 I41  0.2-  0.7-    190106 587  0.1-  0.1+
151015 F51  0.0   0.1+    190104 I41  0.3-  0.1+    190106 587  0.2-  0.1-
151015 F51  0.1+  0.1+    190104 I41  0.1-  0.4+    190106 587  0.1+  0.0
181222 I41  0.3-  0.5-    190104 I41  0.2+  0.3+    190106 J04  0.2+  0.9+
181222 I41  0.1-  0.2-    190104 I41  0.2-  0.5+    190106 J04  0.1-  0.1+
181222 I41  0.6+  1.1+    190105 I41  0.1+  0.2-    190106 J04  0.3+  0.1+
181222 I41  0.0   0.0     190105 I41  0.3+  0.1-

Ephemeris:
2019 AQ3                 a,e,i = 0.59, 0.31, 47                  Q = 0.7737
Date    TT    R. A. (2000) Decl.     Delta      r     Elong.  Phase     V
2018 12 08    20 43 16.5 -43 13 50   0.4902  0.7729    50.6   100.1    19.1
...
2018 12 23    21 33 25.0 -17 42 50   0.4757  0.7629    49.2   102.7    19.2
...
2018 12 31    21 41 47.1 -05 08 29   0.5014  0.7433    47.5   102.6    19.2
...
2019 01 06    21 42 23.3 +02 41 36   0.5306  0.7222    45.8   102.3    19.3
2019 01 07    21 42 04.7 +03 50 47   0.5360  0.7182    45.5   102.3    19.3
2019 01 08    21 41 39.5 +04 57 16   0.5415  0.7140    45.2   102.2    19.3
...
2019 01 14    21 36 57.2 +10 38 17   0.5764  0.6857    43.0   102.0    19.3
...
2019 01 22    21 25 36.5 +15 33 18   0.6246  0.6400    39.5   102.2    19.3
...
2019 02 06    20 57 01.6 +15 41 43   0.7132  0.5356    31.9   103.4    19.3

A. U. Tomatic                (C) Copyright 2019 MPC           M.P.E.C. 2019-A97



More information about the Iaude mailing list